User: anonymous   Login
Location: Lawrence Hall of Science
(37.8785°N, 122.2415°W)
Time: 02:03:16
(UTC-07:00)
Language:

Cosmos 1461 - Orbit

View from above orbital plane
View from above orbital plane
View from above satellite
View from above satellite

Ground track
Ground track

The orbit data is extracted from the following two-line orbital elements,

1 14064U 83044A   16179.86108769 +.00000800 +00000-0 +83663-4 0  9991
2 14064 065.0021 300.6015 0107649 195.6460 164.1321 14.93049790670449
Epoch (UTC): 27 June 2016 20:39:57
Eccentricity: 0.0107649
inclination: 65.0021°
perigee height: 513 km
apogee height: 663 km
right ascension of ascending node: 300.6015°
argument of perigee: 195.6460°
revolutions per day: 14.93049790
mean anomaly at epoch: 164.1321°
orbit number at epoch: 67044

The dashed part of the orbit path shows where the satellite is in the earth's shadow,  

DLR